Starlink 4349

operational
NORAD ID: 53044 Int'l Des: 2022-077 Owner: SPXS Country: US Constellation: starlink
LEOCIRCULARRETROGRADESSO

About Starlink 4349

Description loading...

Live Position

Loading 3D Globe...

Upcoming Passes

Altitude History

Altitude vs Time

uPlot chart will show altitude changes over time

Two-Line Element Set

1 53044U 22077B 25350.95404558 -.00004778 00000-0 -15125-3 0 9994
2 53044 97.6051 170.3735 0002476 92.0970 268.0555 15.32225845188586
Epoch: Dec 16, 2025 • Age: 13 hours

Current Status

Altitude 481.6 km
Velocity 7.62 km/s
Sub-Earth Point -30.63°S, 74.77°E
Launch Date Jul 11, 2022
Age 3.4 years
Type internet

Technical Details

Classification Payload
Mass 297.00 kg
Dry Mass 275.00 kg
Total Mass 297.00 kg
Length 0.20 m
Diameter 2.80 m
Span 9.00 m
Shape Box + pan
Manufacturer SPXS
Bus Type Starlink
Phase Status In Orbit
Owner/State SPXS/US

Large Constellations

Loading constellations...